CAPE
5 13 3 16 0 0 0 429 682 332 193 1 0 0 3 0 0 269 944 1059 1081 2460 2307 2273 2288 2198 1751 1168 1777 1833 1322 1440 1799 1821 1815 1802 1701 1493 1332 1154 1097 956 958
90 98 36 0 0 0 22 290 638 388 0 138 161 17 241 467 651 421 903 1025 1392 2251 2085 2276 1998 1705 1464 1461 1692 1278 1551 1918 1873 1835 1992 1653 1447 1222 1224 1192 871 803 845
195 39 0 0 54 182 242 293 595 581 162 265 472 211 372 629 713 384 261 296 1290 2036 2143 2267 2085 1559 1447 1457 1312 1626 1835 1870 1909 1786 1708 1440 1608 1244 1231 563 250 814 624
232 58 4 46 137 353 494 594 618 706 832 746 494 268 249 370 663 488 157 318 664 1141 1733 2219 1747 1284 1292 1497 1666 1813 1949 2012 1845 1991 1586 1409 1443 1261 932 371 437 592 324
340 281 190 124 191 102 177 887 776 537 9 530 484 381 12 76 302 347 624 497 103 426 763 1274 1303 1245 1541 1988 2129 2061 2037 1884 1970 1751 1439 1540 1402 1360 793 282 173 339 197
576 376 245 217 127 121 394 765 912 607 505 177 0 261 82 0 110 135 189 480 510 246 54 317 851 1383 1792 2135 2345 2275 1909 1915 1860 1705 1366 1495 1371 1238 830 440 3 192 157
604 420 247 14 35 323 476 842 938 311 300 88 56 80 0 0 16 111 0 148 458 308 409 281 56 657 1015 1168 1643 1991 1738 2031 2147 1414 1449 1412 1223 1111 837 528 28 15 170
630 385 185 0 143 400 589 821 861 628 306 66 31 0 0 0 0 57 14 160 4 259 720 1002 592 370 558 588 731 1260 1444 1895 2209 1513 1577 1304 1166 973 899 691 94 0 75
698 565 266 2 74 372 580 743 864 595 595 46 0 0 0 0 0 4 2 37 297 482 90 561 986 806 613 486 587 640 1101 1367 1921 1527 1658 1357 1044 839 666 607 95 0 0
740 533 439 194 118 480 156 380 592 863 790 577 75 0 0 0 0 1 0 0 131 371 332 480 744 1140 966 912 791 564 796 1023 1377 1381 1410 1381 1165 846 739 521 165 0 0
794 486 242 11 0 192 0 163 114 945 908 565 78 0 0 0 38 3 1 0 12 30 79 287 745 839 672 1161 1013 874 929 990 1037 1255 1059 1225 1280 1078 930 684 389 73 0
594 667 506 85 0 533 306 26 225 1267 1113 897 504 194 44 22 157 143 137 97 75 164 362 423 610 328 255 585 1261 1229 1247 1134 1085 1129 1032 983 1169 1261 1155 1014 795 535 131
464 834 934 827 745 750 618 205 780 943 1149 1002 1085 830 582 362 486 232 141 13 13 0 41 181 584 696 735 733 1489 1701 1641 1427 1171 998 974 860 908 1085 1174 1126 1034 983 808
777 606 722 961 1043 861 752 691 764 828 875 1209 858 1008 1070 633 387 180 52 0 1 5 122 339 361 437 831 781 961 1585 1714 1582 1213 1083 933 740 771 825 950 1045 964 911 953
665 582 336 540 654 996 1053 1141 778 724 734 790 964 675 381 391 373 85 240 428 191 76 71 35 74 162 690 712 914 1395 1408 1325 1129 970 813 598 564 582 523 550 654 755 778
577 701 713 544 607 710 1071 1279 924 653 730 711 1243 1161 1023 732 746 627 672 683 765 427 160 0 373 537 1135 1226 982 723 1131 961 844 795 693 565 499 502 513 413 291 293 354
668 543 656 857 506 627 652 877 1039 1050 818 702 862 1018 985 1100 1100 807 750 625 408 661 389 585 688 708 629 603 847 938 936 918 828 767 667 558 459 373 315 306 293 156 92
1057 861 648 617 750 833 707 603 613 942 1024 939 776 767 742 977 818 556 456 449 480 579 554 278 308 424 402 358 488 670 716 818 895 698 574 485 357 266 143 100 65 43 61
1306 1305 835 720 803 948 760 625 565 615 912 911 882 944 870 736 697 574 583 643 842 823 610 542 632 735 497 566 604 650 816 1022 921 739 660 593 366 197 56 25 22 16 5
1651 1324 1065 824 1064 939 794 728 585 387 451 684 749 797 760 651 737 682 685 623 661 530 614 676 687 695 511 559 504 349 311 317 178 217 71 361 330 15 0 4 0 0 2
1821 1499 1398 1068 1061 872 750 723 603 560 554 725 807 718 738 808 867 771 610 496 511 542 524 591 485 432 459 441 391 155 168 236 99 97 133 188 269 11 0 0 0 0 0
1960 1645 1507 1422 1069 1034 808 631 564 465 440 514 539 456 1124 1124 837 862 798 699 532 711 648 530 400 378 319 106 21 36 75 102 85 314 398 368 10 0 0 0 0 0 0
1575 1638 1617 1527 1335 1230 1013 691 661 604 609 565 581 352 489 772 703 837 786 689 596 657 639 669 576 322 193 135 120 109 169 241 200 294 151 39 0 0 0 0 0 0 0
1214 1107 1175 1283 1242 1283 1187 986 705 942 944 835 854 832 763 583 617 572 570 697 459 403 550 481 440 288 159 117 142 222 397 508 309 96 0 0 0 0 0 0 0 0 0
530 528 317 313 359 288 89 26 135 626 828 885 804 678 639 524 456 370 638 557 400 556 298 272 175 118 132 255 368 306 281 218 85 15 0 0 0 0 0 0 0 0 0
0 78 271 58 0 0 0 0 0 77 448 533 533 738 644 697 658 462 582 704 545 691 504 330 247 61 45 50 53 81 118 169 0 0 0 0 0 0 0 0 0 0 0
CIN
-35 -173 -71 -63 0 0 0 -78 -71 -104 -121 -59 0 -15 -62 0 0 -126 -85 -41 -30 0 0 0 0 0 -3 -46 -4 0 -12 -1 0 0 0 0 0 0 0 -2 -2 -9 -6
-109 -131 -112 0 0 0 -98 -108 -84 -89 0 -89 -75 -99 -88 -102 -121 -122 -99 -61 -42 -1 -1 0 0 -9 -12 -16 -6 -27 -1 0 0 -3 -2 -1 -2 -17 -14 -7 -45 -50 -35
-105 -210 0 0 -154 -127 -133 -114 -86 -98 -154 -156 -91 -146 -119 -107 -99 -120 -120 -112 -65 -3 -1 0 0 -28 -27 -13 -22 -2 0 -1 -1 -2 -3 -8 -2 -17 -11 -122 -194 -61 -88
-102 -203 -75 -140 -127 -109 -105 -86 -38 -33 -45 -89 -92 -133 -177 -132 -107 -115 -182 -124 -87 -59 -32 -4 -22 -44 -37 -8 -2 -1 -1 -1 -3 -1 -5 -13 -8 -14 -59 -179 -155 -107 -164
-73 -119 -139 -136 -121 -130 -110 -52 -37 -38 -69 -86 -89 -99 -212 -243 -149 -146 -105 -131 -203 -127 -85 -71 -64 -71 -48 -4 0 0 0 -3 -1 -2 -22 -11 -13 -12 -89 -208 -252 -173 -208
-53 -59 -101 -123 -156 -115 -56 -52 -30 -42 -51 -134 0 -114 -207 0 -226 -177 -177 -145 -140 -202 -279 -189 -97 -67 -52 -22 -1 0 -1 -1 -2 -2 -27 -18 -22 -30 -82 -162 -482 -223 -219
-30 -66 -77 -158 -171 -62 -43 -42 -27 -48 -99 -219 -218 -236 0 0 -300 -278 -1 -142 -181 -194 -179 -214 -298 -125 -97 -76 -49 -21 -17 0 0 -28 -23 -23 -37 -41 -71 -122 -408 -437 -221
-42 -83 -86 0 -132 -56 -44 -45 -26 -33 -114 -288 -234 0 0 0 0 -315 -165 -221 -108 -248 -139 -116 -172 -176 -135 -115 -109 -77 -57 -20 0 -20 -16 -31 -35 -47 -49 -74 -258 0 -257
-41 -54 -74 -95 -124 -98 -59 -72 -40 -37 -34 -264 0 0 0 0 0 -334 -149 -363 -175 -146 -262 -183 -126 -144 -148 -135 -133 -107 -81 -59 -29 -36 -17 -36 -54 -66 -81 -81 -220 0 0
-35 -55 -58 -105 -125 -88 -113 -93 -72 -40 -39 -54 -261 0 0 0 0 -32 0 0 -220 -157 -153 -169 -171 -139 -129 -125 -130 -128 -106 -82 -62 -64 -53 -41 -51 -70 -72 -94 -172 0 0
-35 -50 -82 -76 -12 -136 0 -116 -136 -34 -42 -61 -147 -3 0 0 -230 -12 -4 0 -261 -256 -212 -180 -149 -155 -155 -124 -142 -136 -114 -104 -93 -86 -88 -66 -51 -62 -67 -84 -106 -215 0
-34 -35 -60 -148 0 -87 -110 -63 -136 -42 -39 -63 -87 -137 -144 -138 -128 -115 -96 -92 -112 -96 -99 -123 -123 -142 -163 -146 -116 -95 -70 -85 -99 -104 -101 -94 -72 -56 -55 -56 -66 -80 -161
-44 -31 -28 -43 -45 -68 -86 -150 -69 -47 -44 -52 -50 -56 -78 -100 -78 -100 -94 -52 -121 0 -85 -75 -84 -102 -115 -126 -102 -66 -61 -60 -96 -108 -103 -99 -94 -74 -60 -57 -55 -47 -50
-38 -39 -31 -31 -34 -52 -67 -72 -73 -63 -64 -53 -49 -52 -48 -60 -60 -69 -105 0 -156 -39 -95 -35 -121 -124 -95 -95 -86 -48 -44 -61 -77 -84 -83 -97 -99 -96 -87 -75 -70 -64 -54
-39 -37 -41 -33 -29 -20 -26 -40 -57 -65 -76 -65 -53 -59 -84 -71 -66 -91 -83 -67 -39 -40 -39 -79 -74 -92 -50 -43 -55 -51 -38 -53 -60 -63 -73 -89 -101 -116 -119 -116 -103 -88 -75
-76 -32 -29 -45 -35 -30 -17 -21 -34 -51 -58 -66 -44 -43 -57 -57 -54 -73 -63 -48 -52 -40 -42 0 -39 -46 -45 -45 -56 -60 -44 -50 -53 -58 -66 -77 -99 -105 -106 -113 -122 -123 -114
-89 -86 -48 -23 -56 -46 -35 -20 -21 -29 -38 -56 -54 -43 -42 -45 -40 -43 -58 -56 -38 -39 -25 -41 -52 -56 -37 -35 -40 -45 -42 -50 -53 -52 -54 -54 -80 -111 -113 -120 -117 -115 -131
-73 -76 -83 -63 -29 -38 -34 -26 -28 -22 -22 -26 -36 -35 -46 -37 -52 -49 -56 -43 -52 -50 -31 -32 -58 -40 -39 -54 -49 -31 -29 -31 -46 -58 -69 -80 -91 -99 -125 -145 -159 -176 -156
-81 -61 -73 -79 -46 -35 -38 -30 -33 -31 -23 -24 -25 -25 -32 -42 -62 -59 -51 -42 -49 -51 -53 -39 -36 -55 -71 -56 -42 -39 -27 -39 -50 -71 -66 -76 -81 -98 -146 -205 -217 -235 -190
-75 -72 -75 -78 -44 -38 -32 -39 -32 -28 -31 -29 -27 -26 -35 -51 -56 -59 -59 -51 -38 -35 -45 -38 -42 -48 -68 -60 -65 -53 -47 -69 -71 -72 -51 -88 -102 -144 0 -133 0 0 -151
-85 -88 -66 -81 -61 -53 -46 -39 -41 -30 -38 -27 -23 -32 -40 -43 -43 -38 -41 -55 -49 -36 -41 -35 -44 -48 -54 -52 -49 -81 -86 -81 -104 -117 -85 -87 -93 -113 0 0 0 0 0
-65 -73 -75 -69 -87 -76 -70 -65 -47 -44 -46 -41 -43 -54 -25 -22 -33 -32 -36 -49 -54 -33 -38 -43 -54 -50 -61 -68 -86 -100 -108 -91 -90 -110 -79 -79 -108 0 0 0 0 0 0
-76 -60 -71 -63 -78 -80 -80 -85 -55 -42 -41 -33 -31 -53 -40 -24 -30 -24 -31 -44 -50 -43 -43 -48 -33 -52 -66 -78 -65 -91 -107 -71 -72 -61 -108 -154 0 0 0 0 0 0 0
-22 -54 -94 -87 -80 -73 -57 -60 -71 -41 -25 -24 -22 -24 -29 -31 -34 -38 -36 -33 -58 -67 -59 -71 -62 -63 -96 -102 -121 -96 -64 -47 -65 -114 0 0 0 0 0 0 0 0 0
-91 -86 -27 -111 -149 -143 -221 -25 -104 -25 -35 -32 -33 -32 -31 -36 -44 -51 -28 -33 -53 -52 -98 -114 -133 -177 -150 -102 -76 -79 -85 -69 -96 -61 0 0 0 0 0 0 0 0 0
0 -238 -37 -75 -3 0 0 0 0 -177 -18 -39 -72 -50 -45 -28 -34 -31 -31 -36 -35 -42 -45 -85 -114 -156 -172 -175 -173 -156 -114 -44 0 0 0 0 0 0 0 0 0 0 0
Wind_Speed
10 11 19 21 23 20 21 21 22 23 22 21 22 23 22 21 21 20 22 23 23 24 24 24 24 23 22 21 21 21 21 21 20 20 19 19 19 18 19 19 19 19 19
11 12 19 20 23 23 22 22 22 23 23 22 21 21 20 18 19 21 22 23 23 23 24 24 23 23 23 22 21 21 21 21 20 20 20 20 20 19 19 19 18 18 19
10 15 23 20 22 22 22 22 22 22 22 21 21 18 17 16 19 21 23 23 22 23 23 23 23 23 23 22 22 21 21 21 20 20 20 19 20 20 20 19 19 19 18
11 15 21 24 24 22 21 22 22 16 16 15 14 13 10 12 11 17 21 22 22 22 23 23 23 23 23 23 22 21 21 20 20 20 20 20 20 20 20 19 18 19 19
11 17 18 18 24 23 23 21 20 10 15 8 11 17 15 11 10 10 14 22 22 23 23 23 23 23 23 22 22 21 20 20 19 20 20 20 20 20 19 19 19 19 19
15 14 17 15 19 22 19 20 22 12 17 15 18 18 18 16 15 12 19 21 22 24 24 24 23 23 23 22 21 21 21 20 19 19 19 19 19 18 18 18 19 19 19
9 10 11 5 5 13 18 20 11 10 11 14 15 14 17 17 19 23 23 20 23 25 24 23 23 23 22 22 22 22 21 21 20 20 20 20 19 18 18 18 18 19 19
11 10 8 13 3 13 17 21 20 14 13 10 14 15 12 19 21 22 21 21 24 25 24 22 22 22 23 22 22 22 21 20 20 20 20 20 20 19 19 18 18 18 18
15 11 12 12 3 14 21 20 21 10 10 8 11 15 17 20 21 21 21 23 22 24 22 23 23 22 23 23 23 22 21 20 20 19 19 19 19 18 18 17 17 16 16
16 16 18 15 17 13 1 10 18 12 11 9 10 15 18 17 12 21 20 22 20 22 23 22 22 23 23 22 23 23 21 21 20 19 18 18 18 18 17 17 16 16 16
14 15 14 16 20 16 5 4 22 19 12 11 8 6 18 19 15 9 16 21 20 24 23 24 23 22 21 21 21 22 21 20 19 18 17 17 16 16 16 15 14 14 13
14 15 12 11 17 13 12 21 15 22 8 18 16 8 12 6 18 19 17 21 21 20 24 25 24 21 20 21 20 19 19 18 18 19 16 16 15 14 13 13 12 12 11
14 13 12 13 13 12 14 19 21 23 26 25 18 17 19 19 16 14 16 19 19 18 17 24 24 20 18 18 19 16 17 18 17 16 16 15 15 14 14 13 11 11 11
20 14 14 12 17 12 9 11 22 28 29 28 28 25 23 23 21 17 17 18 20 20 19 19 20 17 15 19 21 20 16 17 16 14 15 16 15 16 17 15 13 11 10
10 17 14 13 15 15 10 5 16 25 29 32 31 29 28 26 22 18 18 19 20 24 24 21 18 15 10 5 16 9 11 12 13 12 13 14 15 13 14 14 13 12 11
8 7 12 11 12 14 13 10 8 18 29 34 32 32 31 30 29 25 22 20 19 23 27 19 17 17 12 8 6 3 6 3 6 8 8 12 12 10 9 10 9 10 10
11 8 9 9 9 16 16 13 12 19 21 36 34 34 33 33 33 31 22 21 20 18 20 18 16 14 12 13 11 1 2 3 2 2 6 7 7 8 8 8 9 9 10
12 10 9 10 11 10 17 16 13 12 24 31 35 38 35 26 29 29 27 24 22 18 17 22 19 18 16 18 19 16 11 11 11 17 14 12 12 11 11 7 9 11 11
10 12 8 11 13 12 11 14 14 13 14 21 11 9 12 11 9 26 28 24 20 19 17 17 19 18 18 19 18 17 18 18 15 15 15 18 19 20 20 19 18 20 21
10 8 9 9 11 14 12 13 14 12 13 14 34 34 31 23 21 22 31 35 12 20 22 17 11 12 15 14 15 16 17 16 17 17 18 18 23 21 24 24 24 21 23
13 11 10 9 9 10 10 10 11 11 19 21 39 41 41 40 25 22 7 10 6 6 15 16 9 11 12 14 13 16 16 21 24 20 21 21 20 21 23 25 24 24 23
13 11 12 12 12 12 12 11 11 14 18 21 31 38 38 39 39 18 18 17 12 13 12 6 7 7 10 13 15 15 18 21 25 19 18 17 19 22 24 24 23 24 24
18 14 13 13 13 15 14 15 15 22 24 26 28 26 31 34 38 41 36 19 19 19 13 8 9 9 14 17 19 22 19 20 23 21 20 22 19 22 21 21 22 24 25
37 35 24 18 21 20 20 19 20 24 30 32 30 28 26 29 28 28 31 35 25 11 8 10 10 11 13 17 15 17 19 21 22 22 22 21 20 21 19 19 20 21 21
30 35 37 18 21 28 29 27 31 33 33 34 34 31 31 32 32 20 23 19 18 18 19 17 18 19 15 14 12 14 17 17 23 22 21 20 20 20 19 18 15 15 17
31 27 28 25 35 48 48 41 34 37 39 38 37 37 32 32 30 24 18 22 34 30 22 21 21 20 17 16 15 12 16 15 17 20 16 16 17 18 21 17 14 14 16
Wind_Direction
339 342 272 245 215 219 196 196 182 191 184 178 173 174 178 179 184 206 185 165 173 176 178 178 175 177 176 170 172 177 183 187 188 189 189 188 187 185 185 187 190 195 199
335 335 249 234 216 203 197 193 178 177 178 190 198 198 213 219 217 198 176 172 174 177 178 177 177 178 182 180 177 181 187 191 192 192 188 186 185 183 182 184 191 195 194
46 48 204 231 216 214 210 198 188 185 194 205 199 229 237 247 229 202 191 180 180 178 178 179 183 183 185 186 184 185 189 195 197 200 193 191 180 173 171 184 193 186 191
88 104 128 173 195 213 214 194 193 200 232 263 266 275 332 312 286 247 212 202 207 190 184 181 184 187 190 192 189 187 191 196 197 192 189 187 180 170 169 174 172 168 179
115 135 137 144 188 205 206 213 221 312 227 126 316 233 246 317 326 313 268 184 188 191 193 192 188 188 189 192 193 193 193 195 193 185 185 180 172 164 164 169 172 172 176
132 120 142 132 146 225 248 234 194 62 117 102 102 168 168 251 221 265 220 198 183 188 196 197 198 197 193 192 194 193 194 196 188 183 181 175 168 161 161 169 173 169 167
122 127 125 57 330 278 253 235 298 53 52 82 75 121 193 267 252 213 212 235 208 192 196 194 194 199 198 195 196 195 193 194 189 186 181 178 175 171 166 171 175 173 168
132 125 105 117 272 266 260 235 242 291 313 342 344 355 41 286 243 231 236 227 207 198 196 208 196 197 201 199 193 191 185 186 186 187 185 181 180 181 177 174 172 168 165
147 134 128 114 27 274 245 251 243 330 334 354 73 360 45 192 226 229 224 215 220 213 217 223 208 195 199 197 196 192 186 184 179 177 178 176 177 178 179 172 171 168 167
144 146 151 139 139 126 222 310 269 313 314 331 12 8 90 190 275 208 224 215 207 208 216 213 216 197 194 194 192 189 187 184 184 179 175 174 176 178 178 177 176 175 174
147 147 146 147 156 149 289 49 209 257 304 300 3 327 120 148 215 271 231 210 220 216 204 200 211 189 186 186 185 188 188 183 181 181 176 175 176 177 177 175 174 173 174
159 163 156 148 158 150 143 179 151 189 320 261 261 338 89 286 222 218 238 217 219 250 227 208 201 188 195 188 181 182 183 184 185 187 180 178 180 178 176 176 175 175 174
163 163 164 168 165 161 161 170 179 199 222 227 271 279 254 242 278 305 277 259 259 267 271 220 204 187 184 182 186 173 178 181 183 187 185 183 185 188 188 184 183 184 186
179 172 172 171 176 174 173 165 183 204 220 232 238 250 259 254 259 285 290 283 275 277 287 284 284 179 168 188 196 191 181 184 185 186 187 191 192 195 198 199 198 198 200
181 184 183 182 180 181 189 205 178 194 211 232 236 240 245 258 274 291 293 293 287 273 273 291 310 319 326 149 182 152 161 170 184 184 186 192 197 199 203 206 209 212 215
191 200 193 193 190 188 190 203 206 187 203 245 247 245 244 247 251 273 284 291 299 288 268 300 313 315 334 357 5 260 159 145 170 181 187 195 199 207 213 214 220 226 230
187 201 211 211 208 193 192 194 197 191 192 227 251 247 250 246 245 254 287 290 295 310 298 311 313 327 336 339 344 60 271 300 305 223 198 205 220 226 232 245 253 252 253
189 186 199 211 205 205 193 195 203 207 198 207 218 232 253 274 271 272 278 284 290 303 307 298 308 312 320 321 318 322 324 315 315 312 319 323 326 328 323 299 293 287 268
202 193 201 198 197 199 200 200 203 209 205 200 212 222 210 208 220 282 276 282 292 296 304 306 306 310 312 313 318 323 326 325 325 323 322 320 322 324 326 327 328 322 312
222 223 211 209 202 200 208 206 208 218 223 217 212 213 210 202 202 200 221 248 293 295 295 306 310 313 318 324 323 323 323 327 326 329 327 328 321 325 323 324 327 330 321
213 222 243 236 240 233 232 226 237 247 271 271 247 229 227 232 208 205 243 210 247 260 299 302 309 313 315 318 322 323 319 315 313 323 324 325 325 326 327 325 327 330 330
224 236 222 242 251 262 257 234 241 269 270 270 266 259 255 251 229 208 207 205 205 202 205 269 286 229 301 315 319 320 318 316 311 325 327 334 332 324 324 327 330 331 331
260 243 244 248 250 261 264 267 261 274 273 271 268 270 267 266 259 244 223 207 205 208 214 236 229 278 302 306 310 309 313 314 311 316 324 327 334 327 332 334 333 330 329
267 267 267 263 268 271 271 272 274 272 271 269 268 268 271 272 273 272 268 265 212 227 244 287 299 307 310 311 313 314 315 316 315 314 315 323 330 332 338 339 339 338 337
294 281 268 263 282 280 279 282 278 272 269 269 268 269 268 268 269 269 273 274 277 282 290 298 302 307 315 317 317 317 312 319 317 318 315 325 331 336 341 343 351 354 353
298 293 289 298 293 269 262 270 280 277 269 267 267 265 267 267 269 270 266 270 268 274 285 291 297 305 315 320 321 316 313 315 320 319 330 333 339 341 338 349 353 353 352